{"data":{"norad_id":68791,"intl_designator":"2026-087A","name":"GPS BIII-10 (PRN 13)","alt_names":[],"object_type":"PAYLOAD","status":"ACTIVE","operator":null,"country":"US","launch_date":"2026-04-21","launch_site_code":"AFETR","launch_vehicle":null,"mission":null,"orbit_class":"UNKNOWN","rcs_meters":null,"size_class":null,"mass_kg":null,"dimensions":null,"purposes":["nav"],"wikipedia_slug":null,"has_3d_model":false,"image_url":null,"decayed_at":null,"tle_current":{"epoch":"2026-05-19T11:39:59.721696Z","epoch_age_seconds":541715,"freshness":"STALE","line1":"1 68791U 26087A   26139.48610789  .00000028  00000+0  00000+0 0  9996","line2":"2 68791  54.9639 208.9229 0005154 271.7816  81.6763  2.00570690   255","mean_motion":2.0057069,"eccentricity":0.0005154,"inclination_deg":54.9639,"raan_deg":208.9229,"arg_perigee_deg":271.7816,"mean_anomaly_deg":81.6763,"bstar":0,"rev_number":25,"period_min":717.95136168699,"perigee_km":20167.896362638,"apogee_km":20195.274124326,"semimajor_km":26559.722243482,"source":"CELESTRAK","updated_at":"2026-05-25T13:38:23.769587Z"}}}